Time,TemperatureF,DewpointF,PressureIn,WindDirection,WindDirectionDegrees,WindSpeedMPH,WindSpeedGustMPH,Humidity,HourlyPrecipIn,Conditions,Clouds,dailyrainin,SoftwareType,DateUTC
2013-01-19 00:00:00,43.5,33.7,30.15,South,180,4.2,-999.0,68,-99.99,,,0.00,Acu-Link.com,2013-01-19 06:00:00,
2013-01-19 00:15:00,43.0,33.5,30.15,South,180,3.2,-999.0,69,-99.99,,,0.00,Acu-Link.com,2013-01-19 06:15:00,
2013-01-19 00:30:00,43.0,33.9,30.15,South,180,4.2,-999.0,70,-99.99,,,0.00,Acu-Link.com,2013-01-19 06:30:00,
2013-01-19 00:45:00,43.2,34.1,30.15,South,180,3.2,-999.0,70,-99.99,,,0.00,Acu-Link.com,2013-01-19 06:45:00,
2013-01-19 01:00:00,42.8,33.7,30.15,South,180,2.2,-999.0,70,-99.99,,,0.00,Acu-Link.com,2013-01-19 07:00:00,
2013-01-19 01:15:00,41.9,33.5,30.15,South,180,2.7,-999.0,72,-99.99,,,0.00,Acu-Link.com,2013-01-19 07:15:00,
2013-01-19 01:30:00,41.4,33.7,30.15,South,180,2.2,-999.0,74,-99.99,,,0.00,Acu-Link.com,2013-01-19 07:30:00,
2013-01-19 01:46:00,40.5,33.5,30.15,South,180,2.2,-999.0,76,-99.99,,,0.00,Acu-Link.com,2013-01-19 07:46:00,
2013-01-19 02:01:00,40.3,33.7,30.15,South,180,2.2,-999.0,77,-99.99,,,0.00,Acu-Link.com,2013-01-19 08:01:00,
2013-01-19 02:16:00,41.0,34.0,30.14,South,180,3.2,-999.0,76,-99.99,,,0.00,Acu-Link.com,2013-01-19 08:16:00,
2013-01-19 02:46:00,41.0,34.0,30.14,South,180,2.7,-999.0,76,-99.99,,,0.00,Acu-Link.com,2013-01-19 08:46:00,
2013-01-19 03:01:00,40.3,33.3,30.14,South,180,1.1,-999.0,76,-99.99,,,0.00,Acu-Link.com,2013-01-19 09:01:00,
2013-01-19 03:35:00,40.3,33.7,30.14,South,180,1.1,-999.0,77,-99.99,,,0.00,Acu-Link.com,2013-01-19 09:35:00,
2013-01-19 03:50:00,39.6,33.6,30.13,South,180,0.0,-999.0,79,-99.99,,,0.00,Acu-Link.com,2013-01-19 09:50:00,
2013-01-19 04:05:00,38.5,33.5,30.13,South,180,1.1,-999.0,82,-99.99,,,0.00,Acu-Link.com,2013-01-19 10:05:00,
2013-01-19 04:21:00,36.5,31.2,30.12,South,180,0.0,-999.0,81,-99.99,,,0.00,Acu-Link.com,2013-01-19 10:21:00,
2013-01-19 04:36:00,36.5,32.4,30.12,South,180,0.0,-999.0,85,-99.99,,,0.00,Acu-Link.com,2013-01-19 10:36:00,
2013-01-19 04:51:00,35.8,31.7,30.12,South,180,0.0,-999.0,85,-99.99,,,0.00,Acu-Link.com,2013-01-19 10:51:00,
2013-01-19 05:06:00,36.1,32.6,30.12,South,180,0.0,-999.0,87,-99.99,,,0.00,Acu-Link.com,2013-01-19 11:06:00,
2013-01-19 06:55:00,31.6,28.5,30.13,South,180,0.0,-999.0,88,-99.99,,,0.00,Acu-Link.com,2013-01-19 12:55:00,
2013-01-19 07:10:00,31.5,28.1,30.13,South,180,0.0,-999.0,87,-99.99,,,0.00,Acu-Link.com,2013-01-19 13:10:00,
2013-01-19 07:25:00,31.3,27.9,30.13,South,180,0.0,-999.0,87,-99.99,,,0.00,Acu-Link.com,2013-01-19 13:25:00,
2013-01-19 07:40:00,30.9,27.5,30.14,South,180,0.0,-999.0,87,-99.99,,,0.00,Acu-Link.com,2013-01-19 13:40:00,
2013-01-19 07:55:00,31.1,27.7,30.14,South,180,0.0,-999.0,87,-99.99,,,0.00,Acu-Link.com,2013-01-19 13:55:00,
2013-01-19 08:10:00,32.7,29.5,30.15,South,180,0.0,-999.0,88,-99.99,,,0.00,Acu-Link.com,2013-01-19 14:10:00,
2013-01-19 08:25:00,34.0,31.1,30.15,South,180,0.0,-999.0,89,-99.99,,,0.00,Acu-Link.com,2013-01-19 14:25:00,
2013-01-19 08:40:00,35.2,31.7,30.15,South,180,0.0,-999.0,87,-99.99,,,0.00,Acu-Link.com,2013-01-19 14:40:00,
2013-01-19 08:55:00,39.4,36.4,30.15,South,180,2.2,-999.0,89,-99.99,,,0.00,Acu-Link.com,2013-01-19 14:55:00,
2013-01-19 09:11:00,41.0,36.8,30.15,South,180,3.2,-999.0,85,-99.99,,,0.00,Acu-Link.com,2013-01-19 15:11:00,
2013-01-19 09:26:00,42.8,38.3,30.16,South,180,2.2,-999.0,84,-99.99,,,0.00,Acu-Link.com,2013-01-19 15:26:00,
2013-01-19 09:41:00,43.9,39.1,30.17,South,180,2.2,-999.0,83,-99.99,,,0.00,Acu-Link.com,2013-01-19 15:41:00,
2013-01-19 09:56:00,46.8,41.3,30.17,South,180,3.2,-999.0,81,-99.99,,,0.00,Acu-Link.com,2013-01-19 15:56:00,
2013-01-19 10:11:00,51.3,44.3,30.17,SSW,202,5.3,-999.0,77,-99.99,,,0.00,Acu-Link.com,2013-01-19 16:11:00,
2013-01-19 10:42:00,53.6,45.5,30.17,SSW,202,7.8,-999.0,74,-99.99,,,0.00,Acu-Link.com,2013-01-19 16:42:00,
2013-01-19 10:57:00,53.4,45.0,30.16,SW,225,8.3,-999.0,73,-99.99,,,0.00,Acu-Link.com,2013-01-19 16:57:00,
2013-01-19 11:27:00,55.6,45.6,30.16,SSW,202,6.8,-999.0,69,-99.99,,,0.00,Acu-Link.com,2013-01-19 17:27:00,
2013-01-19 12:12:00,56.8,46.4,30.11,South,180,4.2,-999.0,68,-99.99,,,0.00,Acu-Link.com,2013-01-19 18:12:00,
2013-01-19 12:42:00,60.1,45.7,30.09,SSE,157,8.3,-999.0,59,-99.99,,,0.00,Acu-Link.com,2013-01-19 18:42:00,
2013-01-19 13:28:00,64.4,46.9,30.05,SW,225,12.5,-999.0,53,-99.99,,,0.00,Acu-Link.com,2013-01-19 19:28:00,
2013-01-19 13:43:00,65.1,46.0,30.05,SW,225,13.0,-999.0,50,-99.99,,,0.00,Acu-Link.com,2013-01-19 19:43:00,
2013-01-19 13:58:00,65.1,45.5,30.04,SSW,202,8.9,-999.0,49,-99.99,,,0.00,Acu-Link.com,2013-01-19 19:58:00,
2013-01-19 14:13:00,67.3,44.6,30.03,SW,225,9.9,-999.0,44,-99.99,,,0.00,Acu-Link.com,2013-01-19 20:13:00,
2013-01-19 14:28:00,65.7,43.2,30.02,SSW,202,8.9,-999.0,44,-99.99,,,0.00,Acu-Link.com,2013-01-19 20:28:00,
2013-01-19 14:43:00,65.1,43.2,30.02,SSW,202,11.4,-999.0,45,-99.99,,,0.00,Acu-Link.com,2013-01-19 20:43:00,
2013-01-19 15:14:00,65.1,43.2,30.02,SSW,202,6.3,-999.0,45,-99.99,,,0.00,Acu-Link.com,2013-01-19 21:14:00,
2013-01-19 15:44:00,65.3,44.0,30.02,SSW,202,4.7,-999.0,46,-99.99,,,0.00,Acu-Link.com,2013-01-19 21:44:00,
2013-01-19 15:59:00,66.7,43.5,30.02,South,180,6.3,-999.0,43,-99.99,,,0.00,Acu-Link.com,2013-01-19 21:59:00,
2013-01-19 16:29:00,67.5,43.6,30.02,SSW,202,7.3,-999.0,42,-99.99,,,0.00,Acu-Link.com,2013-01-19 22:29:00,
2013-01-19 16:59:00,66.6,44.0,30.02,South,180,4.2,-999.0,44,-99.99,,,0.00,Acu-Link.com,2013-01-19 22:59:00,
2013-01-19 17:14:00,65.3,43.4,30.02,South,180,3.2,-999.0,45,-99.99,,,0.00,Acu-Link.com,2013-01-19 23:14:00,
2013-01-19 17:31:00,63.9,43.8,30.01,South,180,4.7,-999.0,48,-99.99,,,0.00,Acu-Link.com,2013-01-19 23:31:00,
2013-01-19 18:32:00,55.2,42.4,30.03,South,180,0.0,-999.0,62,-99.99,,,0.00,Acu-Link.com,2013-01-20 00:32:00,
2013-01-19 18:47:00,53.4,41.9,30.03,South,180,0.0,-999.0,65,-99.99,,,0.00,Acu-Link.com,2013-01-20 00:47:00,
2013-01-19 20:02:00,47.3,40.5,30.05,South,180,0.0,-999.0,77,-99.99,,,0.00,Acu-Link.com,2013-01-20 02:02:00,
2013-01-19 20:17:00,47.7,41.8,30.05,South,180,0.0,-999.0,80,-99.99,,,0.00,Acu-Link.com,2013-01-20 02:17:00,
2013-01-19 20:47:00,45.5,40.0,30.07,South,180,0.0,-999.0,81,-99.99,,,0.00,Acu-Link.com,2013-01-20 02:47:00,
2013-01-19 21:03:00,45.5,41.0,30.07,South,180,0.0,-999.0,84,-99.99,,,0.00,Acu-Link.com,2013-01-20 03:03:00,
2013-01-19 21:18:00,49.1,42.5,30.07,South,180,4.2,-999.0,78,-99.99,,,0.00,Acu-Link.com,2013-01-20 03:18:00,
2013-01-19 21:48:00,48.6,41.4,30.08,South,180,0.0,-999.0,76,-99.99,,,0.00,Acu-Link.com,2013-01-20 03:48:00,
2013-01-19 22:48:00,46.6,40.8,30.09,South,180,0.0,-999.0,80,-99.99,,,0.00,Acu-Link.com,2013-01-20 04:48:00,
2013-01-19 23:03:00,48.4,41.5,30.09,South,180,1.1,-999.0,77,-99.99,,,0.00,Acu-Link.com,2013-01-20 05:03:00,
2013-01-19 23:19:00,47.8,41.9,30.09,South,180,5.8,-999.0,80,-99.99,,,0.00,Acu-Link.com,2013-01-20 05:19:00,
2013-01-19 23:34:00,46.4,40.2,30.09,South,180,0.0,-999.0,79,-99.99,,,0.00,Acu-Link.com,2013-01-20 05:34:00,
2013-01-19 23:49:00,45.3,40.1,30.09,South,180,0.0,-999.0,82,-99.99,,,0.00,Acu-Link.com,2013-01-20 05:49:00,